TimePST,TemperatureF,Dew PointF,Humidity,Sea Level PressureIn,VisibilityMPH,Wind Direction,Wind SpeedMPH,Gust SpeedMPH,PrecipitationIn,Events,Conditions,WindDirDegrees,DateUTC
12:53 AM,46.9,43.0,86,30.10,10.0,NNE,4.6,-,N/A,,Clear,30,2014-02-17 08:53:00
1:53 AM,46.0,43.0,89,30.09,10.0,Calm,Calm,-,N/A,,Clear,0,2014-02-17 09:53:00
2:53 AM,44.1,42.1,93,30.08,10.0,East,4.6,-,N/A,,Clear,80,2014-02-17 10:53:00
3:53 AM,42.1,39.9,92,30.07,10.0,Calm,Calm,-,N/A,,Clear,0,2014-02-17 11:53:00
4:53 AM,39.9,39.9,100,30.07,10.0,Calm,Calm,-,N/A,,Clear,0,2014-02-17 12:53:00
5:53 AM,39.0,37.9,96,30.07,10.0,SE,3.5,-,N/A,,Clear,130,2014-02-17 13:53:00
6:53 AM,39.9,39.0,97,30.11,10.0,Calm,Calm,-,N/A,,Clear,0,2014-02-17 14:53:00
7:53 AM,43.0,41.0,93,30.11,10.0,ESE,3.5,-,N/A,,Clear,120,2014-02-17 15:53:00
8:53 AM,48.9,43.0,80,30.12,10.0,Calm,Calm,-,N/A,,Clear,0,2014-02-17 16:53:00
9:53 AM,54.0,42.1,64,30.11,10.0,NW,3.5,-,N/A,,Clear,310,2014-02-17 17:53:00
10:53 AM,59.0,41.0,51,30.11,10.0,NNW,6.9,-,N/A,,Clear,330,2014-02-17 18:53:00
11:53 AM,62.1,42.1,48,30.09,10.0,NW,4.6,-,N/A,,Clear,320,2014-02-17 19:53:00
12:53 PM,64.9,39.9,40,30.07,10.0,Variable,3.5,-,N/A,,Clear,0,2014-02-17 20:53:00
1:53 PM,68.0,42.1,39,30.04,10.0,Variable,3.5,-,N/A,,Clear,0,2014-02-17 21:53:00
2:53 PM,68.0,42.1,39,30.03,10.0,NNW,5.8,-,N/A,,Clear,330,2014-02-17 22:53:00
3:53 PM,70.0,41.0,35,30.03,10.0,NW,11.5,-,N/A,,Clear,320,2014-02-17 23:53:00
4:53 PM,68.0,39.0,35,30.03,10.0,NW,9.2,-,N/A,,Clear,320,2014-02-18 00:53:00
5:53 PM,64.0,43.0,46,30.05,10.0,NNW,9.2,-,N/A,,Clear,330,2014-02-18 01:53:00
6:53 PM,61.0,42.1,50,30.07,10.0,WNW,8.1,-,N/A,,Clear,290,2014-02-18 02:53:00
7:53 PM,57.0,42.1,57,30.09,10.0,NW,12.7,-,N/A,,Clear,310,2014-02-18 03:53:00
8:53 PM,53.1,44.1,71,30.11,10.0,WNW,9.2,-,N/A,,Clear,300,2014-02-18 04:53:00
9:53 PM,51.1,44.1,77,30.12,10.0,NW,10.4,-,N/A,,Clear,310,2014-02-18 05:53:00
10:53 PM,50.0,44.1,80,30.13,10.0,NW,9.2,-,N/A,,Clear,320,2014-02-18 06:53:00
11:53 PM,48.0,43.0,83,30.14,10.0,NNW,8.1,-,N/A,,Clear,330,2014-02-18 07:53:00